Preview of NWS' New Version of Forecast
This preview is not operational and should not be used for support decisions.

Regional Weather Roundup (RWR)

Issued by National Weather Service (NWS)

                            
000
ASUS42 KTBW 211418
RWRFL 
FLORIDA REGIONAL WEATHER ROUNDUP
NATIONAL WEATHER SERVICE TAMPA BAY RUSKIN FL
1000 AM EDT SAT SEP 21 2019

NOTE: "FAIR" INDICATES FEW OR NO CLOUDS BELOW 12,000 FEET WITH NO
SIGNIFICANT WEATHER AND/OR OBSTRUCTIONS TO VISIBILITY.

FLZ001>010-012>015-112-114-115-211500-
PANHANDLE FLORIDA
  
CITY           SKY/WX    TMP DP  RH WIND       PRES   REMARKS
PENSACOLA      FAIR      79  71  76 E8        30.21R                  
PENSACOLA NAS  FAIR      81  73  76 E16       30.20R                  
MILTON NAS     FAIR      77  67  71 E12       30.23R                  
CRESTVIEW      FAIR      77  66  68 E9        30.25R                  
DUKE FIELD     FAIR      78  66  67 E9        30.23R                  
VALPARAISO     FAIR      79  66  64 E12       30.22R                  
MARY ESTHER    SUNNY     79  70  74 E15       30.20                   
TRI COUNTY     FAIR      78  67  68 VRB7      30.26R                  
PANAMA CITY    FAIR      79  67  66 NE10      30.22R                  
TYNDALL AFB    FAIR      77  68  74 E8        30.22R                  
APALACHICOLA   FAIR      80  70  71 E13G18    30.21R                  

STATION/POSITION SKY/WX   TEMP    WIND        PRES    WAVE   SWELL
                          AIR SEA DIR/SP/G            HT/PER HT/PER
                          (F)     (DEG/KT/KT) (MB)    (FT/S) (FT/S)
30.1N   87.6W              76 84   90/  8/ 12 1022.4R   6/ 7   5/ 7
29.2N   88.2W              83     110/ 19/ 23 1020.9R   7/ 8   2/14
28.8N   86.0W                 85  100/ 19/ 23 1021.4R   8/ 8   5/ 8
PANAMA CITY BEAC           75 82  100/  9/ 13 1023.7R
TOWER C                    80      90/ 22/ 24 1023.0R
28.5N   84.5W              81      80/ 17/ 21 1022.2R   6/ 6

$$
FLZ011-016>038-118-127-128-134-139-239-211500-
NORTH FLORIDA
  
CITY           SKY/WX    TMP DP  RH WIND       PRES   REMARKS
MARIANNA       FAIR      77  68  73 E10       30.25R                  
TALLAHASSEE    PTSUNNY   77  67  71 E9        30.25R                  
PERRY          FAIR      77  69  76 NE7       30.25R                  
LIVE OAK       PTSUNNY   77  66  69 NE6       30.25R                  
CROSS CITY       N/A     79  68  70 NE10      30.22S                  
LAKE CITY      FAIR      77  64  65 NE6       30.24S                  
GAINESVILLE    PTSUNNY   77  68  73 E5        30.24S                  
WILLISTON      FAIR      79  68  70 NE7       30.21S                  
PALATKA        PTSUNNY   77  66  69 E9G16     30.22S                  
MAYPORT NAS    PTSUNNY   82  66  58 E18       30.24R                  
JACKSONVILLE   PTSUNNY   80  65  59 E12       30.24R                  
JAX NAS        FAIR      82  64  54 E12       30.23S                  
JAX CECIL      MOSUNNY   82  70  65 NE10      30.23S                  
FERNANDINA BEA CLOUDY    81  65  58 E16       30.25R                  
ST AUGUSTINE   CLOUDY    80  32  17 E15       30.24R                  
PALM COAST     MOSUNNY   81  66  61 E12G23    30.21R                  

STATION/POSITION SKY/WX   TEMP    WIND        PRES    WAVE   SWELL
                          AIR SEA DIR/SP/G            HT/PER HT/PER
                          (F)     (DEG/KT/KT) (MB)    (FT/S) (FT/S)
SHELL POINT      NOT AVBL
KEATON BEACH               77      60/  8/ 10 1023.9R
CEDAR KEY                  77      70/ 12/ 14 1022.8R
FERNANDINA                 86 80   90/  3/  9 1024.9R
30.7N   81.3W                 81                N/A     5/14   2/14
MAYPORT                    80 81   70/ 15/ 17 1024.1R
31.4N   80.9W              79 81   60/ 16/ 19 1024.8R   5/ 7   3/ 8
ST AUGUSTINE               81 80   80/ 18/ 21 1023.9R

$$
FLZ040-043>046-052-053-057-058-063-144-211500-
INTERIOR CENTRAL FLORIDA
  
CITY           SKY/WX    TMP DP  RH WIND       PRES   REMARKS
OCALA          FAIR      80  67  64 E10       30.21R                  
LEESBURG       FAIR      82  65  56 E9G16     30.20R                  
SANFORD        CLOUDY    79  68  69 E12       30.19R                  
ORLANDO EXEC   FAIR      82  68  62 NE15      30.19R                  
ORLANDO INTL   FAIR      82  67  60 NE17      30.18R                  
KISSIMMEE      FAIR      82  67  60 E14       30.19R                  
WINTER HAVEN   FAIR      83  67  58 E14G21    30.18R                  
LAKELAND       SUNNY     79  66  65 NE13      30.17R                  
BARTOW         SUNNY     81  68  65 NE16      30.16R                  
SEBRING        FAIR      81  70  68 E17       30.15S                  
OKEECHOBEE     FAIR      81  72  74 NE8       30.13S                  

$$
FLZ041-047-054-059-064-141-147-211500-
EAST CENTRAL FLORIDA
  
CITY           SKY/WX    TMP DP  RH WIND       PRES   REMARKS
ORMOND BEACH   SUNNY     82  64  54 E12G17    30.21R                  
DAYTONA BEACH  FAIR      83  64  52 E20G26    30.20R                  
DELAND         FAIR      82  66  57 E14       30.19R                  
NEW SMYRNA BEA MOSUNNY   82  64  54 E15G23    30.20R                  
JFK SPACE CTR  MOSUNNY   82  70  66 E15G23    30.18R                  
TITUSVILLE     MOSUNNY   84  68  58 E12G23    30.19R                  
CAPE CANAVERAL FAIR      83  69  62 E17       30.17R                  
PATRICK AFB    FAIR      82  69  64 E17       30.17R                  
MELBOURNE      LGT RAIN  83  69  62 E15G22    30.16R                  
VERO BEACH     FAIR      83  71  67 E16       30.15R                  
FT PIERCE      FAIR      83  67  58 E16G23    30.14R                  
STUART         MOSUNNY   84  68  58 E18G29    30.14R                  

STATION/POSITION SKY/WX   TEMP    WIND        PRES    WAVE   SWELL
                          AIR SEA DIR/SP/G            HT/PER HT/PER
                          (F)     (DEG/KT/KT) (MB)    (FT/S) (FT/S)
28.5N   80.2W              80 83   60/ 19/ 25 1022.5R  10/16   8/16
28.9N   78.5W              79 80   50/ 19/ 23 1023.0R  11/14  10/14
TRIDENT PIER               81 81   60/ 11/ 18 1023.1R
28.4N   80.5W                 81                N/A     5/ 9   2/17
27.5N   80.2W                 82                N/A     8/13   5/13

$$
FLZ050-056-061-142-242-148-248-149-249-151-251-155-255-
160-260-211500-
WEST CENTRAL FLORIDA
  
CITY           SKY/WX    TMP DP  RH WIND       PRES   REMARKS
CRYSTAL RIVER  FAIR      79  66  65 E9        30.19S                  
INVERNESS      FAIR      81  70  69 NE8       30.20S HAZE             
BROOKSVILLE    FAIR      79  65  62 NE10      30.19R                  
CLEARWATER AIR FAIR      79  66  65 E7        30.16S                  
ST PETE CLEARW FAIR      80  66  62 NE13      30.16S                  
TAMPA INTL     FAIR      80  65  59 E8G17     30.17S                  
TAMPA EXEC     FAIR      81  70  69 NE8       30.17S                  
PLANT CITY     FAIR      81  70  69 E7        30.19S                  
MACDILL AFB    FAIR      80  66  61 E16       30.15S                  
PETER O KNIGHT CLOUDY    81  70  69 NE13      30.17R                  
ST PETERSBURG  FAIR      79  67  66 NE17      30.14S                  
SARASOTA       FAIR      82  67  60 E15       30.12R                  
VENICE         FAIR      82  68  61 E20G25    30.13S                  

STATION/POSITION SKY/WX   TEMP    WIND        PRES    WAVE   SWELL
                          AIR SEA DIR/SP/G            HT/PER HT/PER
                          (F)     (DEG/KT/KT) (MB)    (FT/S) (FT/S)
27.3N   84.2W                 84                N/A     7/ 7
CLEARWATER BEACH           76 83   50/ 10/ 13 1021.4S
MIDDLE TAMPA BAY           77      80/ 16/ 18 1021.1R
VENICE                     80 84   70/ 12/ 16 1020.2R

$$
FLZ066-069-070-075>078-162-262-165-265-211500-
SOUTHWEST FLORIDA AND KEYS
  
CITY           SKY/WX    TMP DP  RH WIND       PRES   REMARKS
PUNTA GORDA    FAIR      81  69  67 E14       30.14R                  
FT MYERS       FAIR      82  69  64 NE12G22   30.10R                  
SOUTHWEST INTL FAIR      82  70  66 E16G25    30.11R                  
NAPLES         FAIR      84  72  67 NE18G28   30.08S                  
MARCO ISLAND   FAIR      82  71  69 NE17G24   30.09S                  
IMMOKALEE      FAIR      84  72  65 NE17G24   30.08S                  
MARATHON       PTSUNNY   83  76  79 NE17      30.03R                  
KEY WEST NAS   PTSUNNY   82  76  81 NE13G22   30.02S                  
KEY WEST INTL  FAIR      81  75  82 NE12G23   30.02S                  

STATION/POSITION SKY/WX   TEMP    WIND        PRES    WAVE   SWELL
                          AIR SEA DIR/SP/G            HT/PER HT/PER
                          (F)     (DEG/KT/KT) (MB)    (FT/S) (FT/S)
NAPLES                     80 82   60/ 11/ 15 1018.8R
26.0N   85.6W              83 86   70/ 21/ 27 1018.4R  10/ 8
DRY TORTUGAS               83      80/ 25/ 30 1016.9R
SAND KEY                   81      60/ 23/ 27 1014.7
SOMBRERO KEY               84      70/ 21/ 26 1016.7
LONG KEY                   82                 1016.0

$$
FLZ067-068-071>074-168-172>174-211500-
SOUTHEAST FLORIDA 
  
CITY           SKY/WX    TMP DP  RH WIND       PRES   REMARKS
W PALM BEACH   PTSUNNY   83  71  67 NE18G24   30.12R                  
BOCA RATON     MOSUNNY   84  73  70 E17       30.10R                  
FT LAUDER-EXEC LGT RAIN  83  73  72 NE18G25   30.09R                  
FT LAUDERDALE  PTSUNNY   81  74  79 NE17G28   30.07R                  
POMPANO BEACH  CLOUDY    84  72  67 NE17G26   30.09R                  
PEMBROKE PINES CLOUDY    83  73  72 NE16G26   30.09R                  
OPA LOCKA      CLOUDY    81  76  84 E13       30.08S                  
MIAMI          CLOUDY    81  73  76 NE8       30.07R                  
WEST KENDALL   LGT RAIN  79  77  94 NE10      30.07R FOG              
HOMESTEAD      CLOUDY    82  77  83 NE16      30.05S                  

STATION/POSITION SKY/WX   TEMP    WIND        PRES    WAVE   SWELL
                          AIR SEA DIR/SP/G            HT/PER HT/PER
                          (F)     (DEG/KT/KT) (MB)    (FT/S) (FT/S)
VIRGINIA KEY               80 83   30/ 15/ 21 1017.5R
LAKE WORTH                 81 81